Regional Weather Roundup
Issued by NWS Green Bay, WI

Home | Current Version | Previous Version | Graphics & Text | Print | Product List | Glossary Off
Versions: 1 2 3 4 5 6 7 8 9 10 11 12 13 14 15 16 17 18 19 20 21 22 23 24 25 26 27 28 29 30 31 32 33 34 35 36 37 38 39 40 41 42 43 44 45 46 47 48 49 50

000
ASUS43 KGRB 041411
RWRGRB

NORTH-CENTRAL AND NORTHEAST WISCONSIN REGIONAL WEATHER ROUNDUP
NATIONAL WEATHER SERVICE GREEN BAY WI
900 AM CDT TUE AUG 04 2015

WIZ005-009-010>012-018-019-041500-
NORTH CENTRAL WISCONSIN

CITY           SKY/WX    TMP DP  RH WIND       PRES   REMARKS
IRONWOOD       MOSUNNY   61  55  82 NW9       29.92R
MANITOWISH WTR CLOUDY    61  56  83 NW6       29.95R
ARBOR VITAE    MOSUNNY   62  54  75 NW10      29.95R
EAGLE RIVER    CLOUDY    59  54  85 W8        29.94R
LAND O LAKES   CLOUDY    59  54  82 NW6G17    29.95R
RHINELANDER    SUNNY     64  53  67 NW9G18    29.96R
PHILLIPS       SUNNY     61  54  77 W5        29.97R
ANTIGO         SUNNY     63  54  72 W8        29.96R
TOMAHAWK       SUNNY     63  54  72 W10       29.97R
MERRILL        NOT AVBL
$$

WIZ013-073-041500-
NORTHEAST WISCONSIN

CITY           SKY/WX    TMP DP  RH WIND       PRES   REMARKS
IRON MOUNTAIN  CLOUDY    61  56  83 W6        29.90R
MARINETTE      CLOUDY    63  54  72 N6        29.91R
OCONTO         PTSUNNY   65  58  77 W6        29.92R
$$

WIZ017-030-035>037-045-041500-
CENTRAL WISCONSIN

CITY           SKY/WX    TMP DP  RH WIND       PRES   REMARKS
MEDFORD        SUNNY     64  53  69 NW9       29.99R
WAUSAU         SUNNY     66  52  60 NW8       29.96R
MOSINEE        SUNNY     64  54  68 NW7       29.99R
MARSHFIELD     SUNNY     67  52  58 W7        30.00R
WISC RAPIDS    SUNNY     67  52  58 NW7       30.01R
STEVENS POINT  SUNNY     64  52  64 W7        29.99R
WAUPACA        SUNNY     70  54  57 W8        29.97R
SHAWANO        SUNNY     67  57  69 NW6       29.95R
CLINTONVILLE   SUNNY     66  54  63 NW8       29.95R
$$

WIZ038-039-048-051-041500-
FOX VALLEY

CITY           SKY/WX    TMP DP  RH WIND       PRES   REMARKS
NWS GREEN BAY  MOSUNNY   67  58  72 W7        29.94R
APPLETON       MOSUNNY   64  54  68 W8        29.96R
OSHKOSH        SUNNY     66  56  70 W6        29.95R
FOND DU LAC    SUNNY     68  57  68 NW10      29.96R
$$

WIZ022-050-052-041500-
EAST CENTRAL WISCONSIN

CITY           SKY/WX    TMP DP  RH WIND       PRES   REMARKS
STURGEON BAY   CLOUDY    63  54  72 NW7       29.95R
MANITOWOC      MOSUNNY   69  56  62 MISG      29.94R
SHEBOYGAN      SUNNY     68  58  70 NW13      29.94R
$$

LMZ563-521-522-541>543-041500-
LAKESHORE

STATION/POSITION TIME  TEMP    WIND        PRES    VSBY  WAVE
                       AIR SEA DIR/SP/G                  HT/PER
                 (UTC) (F)     (DEG/KT/KT) (MB)    (MI)  (FT/S)
SHEBOYGAN LKSHOR 1400   67     270/ 10/ 11 1013.9R
KEWAUNEE LKSHORE 1300   64     310/  2/  5 1012.2R
ALGOMA MARINA    1312          300/  9/ 11   N/A
NORTHPORT PIER   1300   63     310/ 10/ 12 1012.2R
N MID LAKE BUOY  1350   62 68  320/  8/  8 1012.2R         1/ 3
S GREEN BAY BUOY 1400   64 71  320/  8/ 10 1014.8
SISTER BAY LKSHO 1303   63     340/ 13/ 14   N/A
CHAMBERS ISLAND  1300   62     300/  4/  8 1012.5R
MENOMINEE LKSHOR 1300   62     300/  8/ 11 1013.1R
$$



USA.gov is the U.S. government's official web portal to all federal, state and local government web resources and services.